Time,TemperatureF,DewpointF,PressureIn,WindDirection,WindDirectionDegrees,WindSpeedMPH,WindSpeedGustMPH,Humidity,HourlyPrecipIn,Conditions,Clouds,dailyrainin,SoftwareType,DateUTC
2013-04-18 00:02:00,53.0,37.0,30.00,ENE,57,0.0,2.0,55,0.00,,,-99.99,,2013-04-18 07:02:00,
2013-04-18 00:12:00,54.0,35.0,30.00,NE,40,1.0,4.0,48,0.00,,,-99.99,,2013-04-18 07:12:00,
2013-04-18 00:21:00,54.0,35.0,30.00,NE,40,1.0,4.0,48,0.00,,,-99.99,,2013-04-18 07:21:00,
2013-04-18 00:32:00,54.0,35.0,30.00,NE,40,1.0,4.0,48,0.00,,,-99.99,,2013-04-18 07:32:00,
2013-04-18 00:42:00,54.0,32.0,30.00,NE,36,2.0,6.0,43,0.00,,,-99.99,,2013-04-18 07:42:00,
2013-04-18 00:52:00,54.0,32.0,30.00,NE,36,2.0,6.0,43,0.00,,,-99.99,,2013-04-18 07:52:00,
2013-04-18 01:02:00,54.0,32.0,30.00,NE,36,2.0,6.0,43,0.00,,,-99.99,,2013-04-18 08:02:00,
2013-04-18 01:12:00,54.0,30.0,30.01,NNE,22,1.0,4.0,40,0.00,,,-99.99,,2013-04-18 08:12:00,
2013-04-18 01:21:00,54.0,26.0,30.01,NE,37,2.0,5.0,34,0.00,,,-99.99,,2013-04-18 08:21:00,
2013-04-18 01:22:00,54.0,30.0,30.01,NNE,22,1.0,4.0,40,0.00,,,-99.99,,2013-04-18 08:22:00,
2013-04-18 01:32:00,54.0,30.0,30.01,NNE,22,1.0,4.0,40,0.00,,,-99.99,,2013-04-18 08:32:00,
2013-04-18 01:42:00,54.0,26.0,30.01,NE,37,2.0,5.0,34,0.00,,,-99.99,,2013-04-18 08:42:00,
2013-04-18 01:51:00,54.0,26.0,30.01,NE,37,2.0,5.0,34,0.00,,,-99.99,,2013-04-18 08:51:00,
2013-04-18 02:02:00,54.0,26.0,30.01,NE,37,2.0,5.0,34,0.00,,,-99.99,,2013-04-18 09:02:00,
2013-04-18 02:11:00,54.0,26.0,30.01,NE,37,2.0,5.0,34,0.00,,,-99.99,,2013-04-18 09:11:00,
2013-04-18 02:43:00,53.0,25.0,30.01,NNE,19,1.0,4.0,34,0.00,,,-99.99,,2013-04-18 09:43:00,
2013-04-18 02:51:00,55.0,23.0,30.01,NE,34,2.0,6.0,28,0.00,,,-99.99,,2013-04-18 09:51:00,
2013-04-18 02:53:00,53.0,25.0,30.01,NNE,19,1.0,4.0,34,0.00,,,-99.99,,2013-04-18 09:53:00,
2013-04-18 03:03:00,53.0,25.0,30.01,NNE,19,1.0,4.0,34,0.00,,,-99.99,,2013-04-18 10:03:00,
2013-04-18 03:12:00,53.0,25.0,30.01,NNE,19,1.0,4.0,34,0.00,,,-99.99,,2013-04-18 10:12:00,
2013-04-18 03:22:00,55.0,23.0,30.01,NE,34,2.0,6.0,28,0.00,,,-99.99,,2013-04-18 10:22:00,
2013-04-18 03:32:00,55.0,23.0,30.01,NE,34,2.0,6.0,28,0.00,,,-99.99,,2013-04-18 10:32:00,
2013-04-18 03:42:00,55.0,23.0,30.01,NE,34,2.0,6.0,28,0.00,,,-99.99,,2013-04-18 10:42:00,
2013-04-18 04:12:00,57.0,22.0,30.01,NE,54,3.0,9.0,25,0.00,,,-99.99,,2013-04-18 11:12:00,
2013-04-18 04:22:00,57.0,22.0,30.01,NE,54,3.0,9.0,25,0.00,,,-99.99,,2013-04-18 11:22:00,
2013-04-18 04:32:00,57.0,22.0,30.01,NE,54,3.0,9.0,25,0.00,,,-99.99,,2013-04-18 11:32:00,
2013-04-18 04:42:00,57.0,21.0,30.01,ENE,61,2.0,7.0,24,0.00,,,-99.99,,2013-04-18 11:42:00,
2013-04-18 04:51:00,58.0,19.0,30.02,NE,54,3.0,7.0,22,0.00,,,-99.99,,2013-04-18 11:51:00,
2013-04-18 04:52:00,57.0,21.0,30.01,ENE,61,2.0,7.0,24,0.00,,,-99.99,,2013-04-18 11:52:00,
2013-04-18 05:02:00,57.0,21.0,30.01,ENE,61,2.0,7.0,24,0.00,,,-99.99,,2013-04-18 12:02:00,
2013-04-18 05:12:00,58.0,19.0,30.02,NE,54,3.0,7.0,22,0.00,,,-99.99,,2013-04-18 12:12:00,
2013-04-18 05:22:00,58.0,19.0,30.02,NE,54,3.0,7.0,22,0.00,,,-99.99,,2013-04-18 12:22:00,
2013-04-18 05:32:00,58.0,19.0,30.02,NE,54,3.0,7.0,22,0.00,,,-99.99,,2013-04-18 12:32:00,
2013-04-18 05:42:00,58.0,19.0,30.02,NE,54,3.0,7.0,22,0.00,,,-99.99,,2013-04-18 12:42:00,
2013-04-18 05:51:00,60.0,15.0,30.03,ENE,73,6.0,13.0,17,0.00,,,-99.99,,2013-04-18 12:51:00,
2013-04-18 06:12:00,60.0,15.0,30.03,ENE,73,6.0,13.0,17,0.00,,,-99.99,,2013-04-18 13:12:00,
2013-04-18 06:22:00,60.0,15.0,30.03,ENE,73,6.0,13.0,17,0.00,,,-99.99,,2013-04-18 13:22:00,
2013-04-18 06:32:00,60.0,15.0,30.03,ENE,73,6.0,13.0,17,0.00,,,-99.99,,2013-04-18 13:32:00,
2013-04-18 06:42:00,60.0,15.0,30.03,ENE,73,6.0,13.0,17,0.00,,,-99.99,,2013-04-18 13:42:00,
2013-04-18 07:12:00,61.0,14.0,30.06,ENE,61,7.0,15.0,16,0.00,,,-99.99,,2013-04-18 14:12:00,
2013-04-18 07:22:00,61.0,14.0,30.06,ENE,61,7.0,15.0,16,0.00,,,-99.99,,2013-04-18 14:22:00,
2013-04-18 07:32:00,61.0,14.0,30.06,ENE,61,7.0,15.0,16,0.00,,,-99.99,,2013-04-18 14:32:00,
2013-04-18 07:42:00,62.0,15.0,30.07,NE,55,7.0,18.0,16,0.00,,,-99.99,,2013-04-18 14:42:00,
2013-04-18 07:52:00,62.0,15.0,30.07,NE,55,7.0,18.0,16,0.00,,,-99.99,,2013-04-18 14:52:00,
2013-04-18 08:02:00,62.0,15.0,30.07,NE,55,7.0,18.0,16,0.00,,,-99.99,,2013-04-18 15:02:00,
2013-04-18 08:12:00,62.0,15.0,30.07,NE,55,7.0,18.0,16,0.00,,,-99.99,,2013-04-18 15:12:00,
2013-04-18 08:22:00,64.0,14.0,30.08,ENE,69,8.0,15.0,14,0.00,,,-99.99,,2013-04-18 15:22:00,
2013-04-18 08:33:00,64.0,14.0,30.08,ENE,69,8.0,15.0,14,0.00,,,-99.99,,2013-04-18 15:33:00,
2013-04-18 08:42:00,65.0,13.0,30.08,ENE,69,11.0,22.0,13,0.00,,,-99.99,,2013-04-18 15:42:00,
2013-04-18 08:52:00,65.0,13.0,30.08,ENE,69,11.0,22.0,13,0.00,,,-99.99,,2013-04-18 15:52:00,
2013-04-18 09:03:00,65.0,13.0,30.08,ENE,69,11.0,22.0,13,0.00,,,-99.99,,2013-04-18 16:03:00,
2013-04-18 09:13:00,67.0,15.0,30.08,ENE,58,9.0,20.0,13,0.00,,,-99.99,,2013-04-18 16:13:00,
2013-04-18 09:22:00,67.0,15.0,30.08,ENE,58,9.0,20.0,13,0.00,,,-99.99,,2013-04-18 16:22:00,
2013-04-18 09:33:00,67.0,15.0,30.08,ENE,58,9.0,20.0,13,0.00,,,-99.99,,2013-04-18 16:33:00,
2013-04-18 09:42:00,68.0,14.0,30.08,ESE,103,10.0,22.0,12,0.00,,,-99.99,,2013-04-18 16:42:00,
2013-04-18 09:52:00,68.0,14.0,30.08,ESE,103,10.0,22.0,12,0.00,,,-99.99,,2013-04-18 16:52:00,
2013-04-18 10:02:00,68.0,14.0,30.08,ESE,103,10.0,22.0,12,0.00,,,-99.99,,2013-04-18 17:02:00,
2013-04-18 10:12:00,69.0,14.0,30.08,NE,34,11.0,21.0,12,0.00,,,-99.99,,2013-04-18 17:12:00,
2013-04-18 10:21:00,69.0,14.0,30.08,NE,34,11.0,21.0,12,0.00,,,-99.99,,2013-04-18 17:21:00,
2013-04-18 10:33:00,69.0,14.0,30.08,NE,34,11.0,21.0,12,0.00,,,-99.99,,2013-04-18 17:33:00,
2013-04-18 10:42:00,71.0,14.0,30.08,NNE,22,9.0,22.0,11,0.00,,,-99.99,,2013-04-18 17:42:00,
2013-04-18 10:52:00,71.0,14.0,30.08,NNE,22,9.0,22.0,11,0.00,,,-99.99,,2013-04-18 17:52:00,
2013-04-18 11:02:00,71.0,14.0,30.08,NNE,22,9.0,22.0,11,0.00,,,-99.99,,2013-04-18 18:02:00,
2013-04-18 11:12:00,71.0,14.0,30.09,NE,46,10.0,21.0,11,0.00,,,-99.99,,2013-04-18 18:12:00,
2013-04-18 11:22:00,71.0,14.0,30.09,NE,46,10.0,21.0,11,0.00,,,-99.99,,2013-04-18 18:22:00,
2013-04-18 11:32:00,71.0,14.0,30.09,NE,46,10.0,21.0,11,0.00,,,-99.99,,2013-04-18 18:32:00,
2013-04-18 11:42:00,73.0,15.0,30.08,NNE,30,10.0,20.0,11,0.00,,,-99.99,,2013-04-18 18:42:00,
2013-04-18 11:51:00,74.0,14.0,30.07,NE,49,10.0,19.0,10,0.00,,,-99.99,,2013-04-18 18:51:00,
2013-04-18 11:52:00,73.0,15.0,30.08,NNE,30,10.0,20.0,11,0.00,,,-99.99,,2013-04-18 18:52:00,
2013-04-18 12:02:00,73.0,15.0,30.08,NNE,30,10.0,20.0,11,0.00,,,-99.99,,2013-04-18 19:02:00,
2013-04-18 12:12:00,73.0,15.0,30.08,NNE,30,10.0,20.0,11,0.00,,,-99.99,,2013-04-18 19:12:00,
2013-04-18 12:21:00,74.0,14.0,30.07,NE,49,10.0,19.0,10,0.00,,,-99.99,,2013-04-18 19:21:00,
2013-04-18 12:32:00,74.0,14.0,30.07,NE,49,10.0,19.0,10,0.00,,,-99.99,,2013-04-18 19:32:00,
2013-04-18 12:42:00,74.0,14.0,30.07,NE,49,10.0,19.0,10,0.00,,,-99.99,,2013-04-18 19:42:00,
2013-04-18 13:12:00,76.0,16.0,30.06,ESE,107,6.0,12.0,10,0.00,,,-99.99,,2013-04-18 20:12:00,
2013-04-18 13:22:00,76.0,16.0,30.06,ESE,107,6.0,12.0,10,0.00,,,-99.99,,2013-04-18 20:22:00,
2013-04-18 13:32:00,76.0,16.0,30.06,ESE,107,6.0,12.0,10,0.00,,,-99.99,,2013-04-18 20:32:00,
2013-04-18 13:42:00,77.0,14.0,30.04,ENE,59,6.0,14.0,9,0.00,,,-99.99,,2013-04-18 20:42:00,
2013-04-18 14:12:00,78.0,15.0,30.04,ENE,68,2.0,8.0,9,0.00,,,-99.99,,2013-04-18 21:12:00,
2013-04-18 14:21:00,78.0,15.0,30.04,ENE,68,2.0,8.0,9,0.00,,,-99.99,,2013-04-18 21:21:00,
2013-04-18 14:32:00,78.0,15.0,30.04,ENE,68,2.0,8.0,9,0.00,,,-99.99,,2013-04-18 21:32:00,
2013-04-18 14:43:00,79.0,26.0,30.04,South,191,2.0,7.0,14,0.00,,,-99.99,,2013-04-18 21:43:00,
2013-04-18 14:52:00,79.0,26.0,30.04,South,191,2.0,7.0,14,0.00,,,-99.99,,2013-04-18 21:52:00,
2013-04-18 15:02:00,79.0,26.0,30.04,South,191,2.0,7.0,14,0.00,,,-99.99,,2013-04-18 22:02:00,
2013-04-18 15:12:00,78.0,21.0,30.02,West,281,6.0,16.0,12,0.00,,,-99.99,,2013-04-18 22:12:00,
2013-04-18 15:22:00,78.0,21.0,30.02,West,281,6.0,16.0,12,0.00,,,-99.99,,2013-04-18 22:22:00,
2013-04-18 15:32:00,78.0,21.0,30.02,West,281,6.0,16.0,12,0.00,,,-99.99,,2013-04-18 22:32:00,
2013-04-18 15:42:00,77.0,18.0,30.02,WSW,258,5.0,15.0,11,0.00,,,-99.99,,2013-04-18 22:42:00,
2013-04-18 15:51:00,76.0,20.0,30.01,West,272,9.0,18.0,12,0.00,,,-99.99,,2013-04-18 22:51:00,
2013-04-18 15:52:00,77.0,18.0,30.02,WSW,258,5.0,15.0,11,0.00,,,-99.99,,2013-04-18 22:52:00,
2013-04-18 16:03:00,77.0,18.0,30.02,WSW,258,5.0,15.0,11,0.00,,,-99.99,,2013-04-18 23:03:00,
2013-04-18 16:11:00,76.0,20.0,30.01,West,272,9.0,18.0,12,0.00,,,-99.99,,2013-04-18 23:11:00,
2013-04-18 16:21:00,76.0,20.0,30.01,West,272,9.0,18.0,12,0.00,,,-99.99,,2013-04-18 23:21:00,
2013-04-18 16:32:00,76.0,20.0,30.01,West,272,9.0,18.0,12,0.00,,,-99.99,,2013-04-18 23:32:00,
2013-04-18 16:42:00,76.0,20.0,30.01,West,272,9.0,18.0,12,0.00,,,-99.99,,2013-04-18 23:42:00,
2013-04-18 17:12:00,72.0,17.0,30.01,West,281,10.0,21.0,12,0.00,,,-99.99,,2013-04-19 00:12:00,
2013-04-18 17:42:00,70.0,20.0,30.02,WSW,258,9.0,20.0,15,0.00,,,-99.99,,2013-04-19 00:42:00,
2013-04-18 17:51:00,70.0,20.0,30.02,WSW,258,9.0,20.0,15,0.00,,,-99.99,,2013-04-19 00:51:00,
2013-04-18 18:01:00,70.0,20.0,30.02,WSW,258,9.0,20.0,15,0.00,,,-99.99,,2013-04-19 01:01:00,
2013-04-18 18:11:00,71.0,25.0,30.03,SSW,193,2.0,9.0,18,0.00,,,-99.99,,2013-04-19 01:11:00,
2013-04-18 18:21:00,71.0,25.0,30.03,SSW,193,2.0,9.0,18,0.00,,,-99.99,,2013-04-19 01:21:00,
2013-04-18 18:31:00,71.0,25.0,30.03,SSW,193,2.0,9.0,18,0.00,,,-99.99,,2013-04-19 01:31:00,
2013-04-18 18:42:00,69.0,29.0,30.03,West,263,1.0,11.0,22,0.00,,,-99.99,,2013-04-19 01:42:00,
2013-04-18 18:52:00,69.0,29.0,30.03,West,263,1.0,11.0,22,0.00,,,-99.99,,2013-04-19 01:52:00,
2013-04-18 19:01:00,69.0,29.0,30.03,West,263,1.0,11.0,22,0.00,,,-99.99,,2013-04-19 02:01:00,
2013-04-18 19:11:00,69.0,29.0,30.03,West,263,1.0,11.0,22,0.00,,,-99.99,,2013-04-19 02:11:00,
2013-04-18 19:21:00,66.0,32.0,30.04,SSE,149,1.0,5.0,28,0.00,,,-99.99,,2013-04-19 02:21:00,
2013-04-18 19:32:00,66.0,32.0,30.04,SSE,149,1.0,5.0,28,0.00,,,-99.99,,2013-04-19 02:32:00,
2013-04-18 19:42:00,64.0,32.0,30.04,SE,146,1.0,3.0,30,0.00,,,-99.99,,2013-04-19 02:42:00,
2013-04-18 19:51:00,64.0,32.0,30.04,SE,146,1.0,3.0,30,0.00,,,-99.99,,2013-04-19 02:51:00,
2013-04-18 20:01:00,64.0,32.0,30.04,SE,146,1.0,3.0,30,0.00,,,-99.99,,2013-04-19 03:01:00,
2013-04-18 20:11:00,64.0,32.0,30.04,SE,146,1.0,3.0,30,0.00,,,-99.99,,2013-04-19 03:11:00,
2013-04-18 21:13:00,59.0,31.0,30.04,SSW,194,0.0,2.0,35,0.00,,,-99.99,,2013-04-19 04:13:00,
2013-04-18 21:21:00,58.0,34.0,30.05,WNW,302,0.0,4.0,41,0.00,,,-99.99,,2013-04-19 04:21:00,
2013-04-18 21:23:00,59.0,31.0,30.04,SSW,194,0.0,2.0,35,0.00,,,-99.99,,2013-04-19 04:23:00,
2013-04-18 21:33:00,59.0,31.0,30.04,SSW,194,0.0,2.0,35,0.00,,,-99.99,,2013-04-19 04:33:00,
2013-04-18 21:43:00,58.0,34.0,30.05,WNW,302,0.0,4.0,41,0.00,,,-99.99,,2013-04-19 04:43:00,
2013-04-18 21:52:00,58.0,34.0,30.05,WNW,302,0.0,4.0,41,0.00,,,-99.99,,2013-04-19 04:52:00,
2013-04-18 22:03:00,58.0,34.0,30.05,WNW,302,0.0,4.0,41,0.00,,,-99.99,,2013-04-19 05:03:00,
2013-04-18 22:11:00,58.0,34.0,30.05,WNW,302,0.0,4.0,41,0.00,,,-99.99,,2013-04-19 05:11:00,
2013-04-18 22:52:00,56.0,39.0,30.05,NW,304,0.0,2.0,53,0.00,,,-99.99,,2013-04-19 05:52:00,
2013-04-18 23:01:00,56.0,39.0,30.05,NW,304,0.0,2.0,53,0.00,,,-99.99,,2013-04-19 06:01:00,
2013-04-18 23:11:00,55.0,36.0,30.04,NW,304,0.0,1.0,48,0.00,,,-99.99,,2013-04-19 06:11:00,
2013-04-18 23:22:00,55.0,36.0,30.04,NW,304,0.0,1.0,48,0.00,,,-99.99,,2013-04-19 06:22:00,
2013-04-18 23:32:00,55.0,36.0,30.04,NW,304,0.0,1.0,48,0.00,,,-99.99,,2013-04-19 06:32:00,
2013-04-18 23:42:00,55.0,36.0,30.04,NW,304,0.0,1.0,48,0.00,,,-99.99,,2013-04-19 06:42:00,
2013-04-18 23:52:00,54.0,35.0,30.04,NW,304,0.0,2.0,48,0.00,,,-99.99,,2013-04-19 06:52:00,